Showing default

BEIDOU 6, 37210

Orbit data source: Space-Track

BEIDOU 6, 37210 is a payload satellite owned by CNSA (CN) in GEO that was launched on Sun, 31 Oct 2010 UTC via a CHANG ZHENG 3C launch vehicle from the Xichang Space Center, China (XSC). Payload-class satellites include a variety of spacecraft equipped with specific instruments for various scientific and technological missions. These include communications satellites like Starlink; space stations such as the ISS; scientific satellites like the Hubble; Earth observation satellites from companies like Planet Labs, Umbra, and HawkEye 360; GPS; miniature CubeSats for education and research; and military/defense satellites.

Not visible in the next 10 days
Identifier
37210, 2010-057A
Orbit
GEO
Country
Flag of CNCN / PRC
Related business
Manufacturer
CAST
Mission
Operational Defense Navigation
Bus & Motor
DFH-3B, FY-25
Mass
3,060 kg wet, 1,700 kg dry
Launch date (UTC)
2010-10-31 (15 years ago)
Launch vehicle
CHANG ZHENG 3C
Launch site
Xichang Space Center, China (XSC)
Object type
Payload
Rocket body
Debris
Shape & HBR
Box + 2 Pan, 9.0 m
Radar Cross Section
13.998 m², Large (>1 m²)

Expand to show TLE details & history
Last TLE update: 12 hours ago

TLE from 12 hours ago
0 BEIDOU 6
1 37210U 10057A   26071.81737900 -.00000111  00000-0  00000-0 0  9991
2 37210   3.4064  69.4958 0008210 213.1380 342.1031  1.00272658 56323
Epoch: 2026-03-12T19:37Z
TLE epoch observation values (Epoch: 2026-03-12T19:37:01.545Z)
Latitude
-0.87643°
Longitude
159.98022°
Altitude
35,753.142 km
Speed
3.077 km/s
True Right ascension
17h 38m 47s
True Declination
0° 52' 32"
Sunlit
Object was in daylight at epoch
Visualization orbit readout
Latitude
Unknown
Longitude
Unknown
Altitude
Unknown
Speed
Unknown
Apparent Right ascension
Unknown
Apparent Declination
Unknown
Sunlit
N/A
Visualization observer readout
Local Sidereal Time
12:20:54
Azimuth
Unknown
Elevation
Unknown
Doppler factor
Unknown
Orbital elements
Apogee altitude
35,822.033 km
Perigee altitude
35,752.797 km
Semi-major axis
42,165.552 km
Eccentricity
0.00082
Inclination
3.4064°
RAAN
69.4958°
Arg. of periapsis
213.138°
True anomaly
342.07416°
Mean anomaly
342.1031°
Eccentric anomaly
342.08863°
Mean motion
0.25067 °/min
Orbital period
1,436.14 mins
BSTAR
0
Loading maneuver chart data...
Computing Atmospheric mass density...
Loading historical data...
Loading historical data...
Loading historical data...
Loading historical data...
Loading historical data...
Loading historical data...
Loading historical data...

Documentation

Showing up to 5 results
|